Regional Weather Roundup
Issued by NWS

Home | Current Version | Previous Version | Graphics & Text | Print | Product List | Glossary On
Versions: 1 2 3 4 5 6 7 8 9 10 11 12 13 14 15 16 17 18 19 20 21 22 23 24 25 26 27 28 29 30 31 32 33 34 35 36 37 38 39 40 41 42 43 44 45 46 47 48 49 50
980
ASUS43 KDTX 022301
RWRMI
MICHIGAN HOURLY REGIONAL WEATHER ROUNDUP
NATIONAL WEATHER SERVICE DETROIT/PONTIAC MI
600 PM EST FRI DEC 02 2016

NOTE: "FAIR" INDICATES FEW OR NO CLOUDS BELOW 12,000 FEET WITH NO
SIGNIFICANT WEATHER AND/OR OBSTRUCTION TO VISIBILITY.

MIZ047>049-052>055-059>063-066>070-074>076-081>083-030000-
SOUTHEAST LOWER MICHIGAN

CITY           SKY/WX    TMP DP  RH WIND       PRES   REMARKS
ADRIAN         CLOUDY    37  30  75 NW9       30.18R WCI  30
ALMA           CLOUDY    37  28  72 W12G17    30.16R WCI  29
ANN ARBOR      CLOUDY    36  26  67 W15       30.15R WCI  27
BAD AXE        CLOUDY    38  32  79 W12       30.08R WCI  30
CARO           CLOUDY    37  31  77 W9        30.11R WCI  31
DETROIT CITY   CLOUDY    37  26  64 W10G17    30.14R WCI  30
DETROIT        CLOUDY    37  27  67 NW14      30.16R WCI  28
FLINT          CLOUDY    36  28  73 W10       30.14S WCI  28
GROSSE ILE     CLOUDY    38  27  65 NW12      30.14R WCI  30
HILLSDALE      CLOUDY    34  28  80 W12       30.16R WCI  25
HOWELL         CLOUDY    35  26  70 W12       30.15R WCI  27

CITY           SKY/WX    TMP DP  RH WIND       PRES   REMARKS
JACKSON        CLOUDY    35  26  69 NW10      30.17R WCI  27
LAMBERTVILLE   CLOUDY    39  30  70 NW5       30.17R
LANSING        CLOUDY    35  26  69 W12       30.18R WCI  27
LAPEER         NOT AVBL
MASON          CLOUDY    34  28  76 W10       30.16S WCI  26
MONROE         CLOUDY    38  30  72 NW13G18   30.15R WCI  30
MT. CLEMENS    CLOUDY    38  28  67 W15       30.09S WCI  29
PONTIAC        CLOUDY    36  26  67 W16G22    30.11R WCI  26
PORT HOPE        N/A     41  33  73 W13G23    30.04R
PORT HURON     CLOUDY    36  28  75 W10G17    30.09S WCI  28
TRI CITIES     CLOUDY    38  30  73 W12       30.14R WCI  30
MIDLAND        CLOUDY    38  29  69 W7G16     30.13R WCI  33
TROY           CLOUDY    38  26  61 W7        30.14R WCI  32
SAGINAW HB     CLOUDY    37  28  70 W14       30.12R WCI  29
$$
MIZ043>046-050>051-056>058-064>065-071>073-077>080-030000-
SOUTHWEST LOWER MICHIGAN

CITY           SKY/WX    TMP DP  RH WIND       PRES   REMARKS
BATTLE CREEK   CLOUDY    36  30  79 W7        30.19R WCI  30
BENTON HARBOR  CLOUDY    38  24  57 W8        30.23R WCI  32
BIG RAPIDS     CLOUDY    36  29  75 NW7       30.15R WCI  30
COLDWATER      CLOUDY    37  27  69 W10       30.18R WCI  29
FREMONT        CLOUDY    35  26  69 NW6       30.19R WCI  30
HOLLAND        CLOUDY    37  28  70 NW7       30.20R WCI  32
GRAND RAPIDS   CLOUDY    36  25  64 NW9       30.19R WCI  29
IONIA          CLOUDY    35  26  69 W8        30.17R WCI  28
KALAMAZOO      CLOUDY    37  26  64 W7        30.20R WCI  32
LUDINGTON      CLOUDY    36  30  79 NW7       30.19R WCI  30
MARSHALL       CLOUDY    36  30  80 W5        30.17R WCI  32
MOUNT PLEASANT CLOUDY    37  30  76 W7        30.14R WCI  31
MUSKEGON       CLOUDY    37  29  72 NW6       30.21R WCI  32
SOUTH HAVEN    CLOUDY    39  30  68 W5        30.21R
$$
MIZ016>042-030000-
NORTHERN LOWER MICHIGAN

CITY           SKY/WX    TMP DP  RH WIND       PRES   REMARKS
ALPENA         CLOUDY    38  35  89 W7        30.06R WCI  33
BEAVER ISLAND  CLOUDY    38  33  82 NW10G17   30.13R WCI  31
BELLAIRE       FLURRIES  38  36  94 W9        30.13R WCI  31
CADILLAC       CLOUDY    34  31  90 W5        30.13R WCI  30
CHARLEVOIX     CLOUDY    39  35  85 NW16G22   30.14R WCI  31
FRANKFORT      CLOUDY    38  33  84 NW6       30.16S WCI  33
GAYLORD        LGT RAIN  36  33  89 NW6       30.08R WCI  31
GRAYLING       CLOUDY    35  34  94 W7G16     30.11R FOG     WCI  29
HARBOR SPRINGS CLOUDY    37  35  89 W7        30.11R WCI  32
HOUGHTON LAKE  CLOUDY    36  30  79 W12       30.11R WCI  28
MANISTEE       LGT RAIN  37  31  78 W9        30.18R WCI  30
OSCODA         CLOUDY    41  32  70 W12G17    30.06R
PELLSTON       CLOUDY    39  32  76 NW12      30.10R WCI  32
ROGERS CITY    CLOUDY    39  35  85 NW8       30.07R WCI  33
TRAVERSE CITY  CLOUDY    38  33  82 W9        30.14R WCI  31
$$
MIZ007>008-015-030000-
EASTERN UPPER MICHIGAN

CITY           SKY/WX    TMP DP  RH WIND       PRES   REMARKS
KINROSS        CLOUDY    35  33  92 W8        30.07R WCI  29
MACKINAC ISLAN CLOUDY    36  35  94 NW9       30.08R WCI  29
NEWBERRY       CLOUDY    35  34  96 NW7       30.10R WCI  29
S. S. MARIE    CLOUDY    37  33  85 NW12      30.05R WCI  29
MUNISING         N/A     38  34  85 NW12      30.14R WCI  30
$$
MIZ004>006-011>014-085-030000-
CENTRAL UPPER MICHIGAN

CITY           SKY/WX    TMP DP  RH WIND       PRES   REMARKS
MANISTIQUE     CLOUDY    36  34  93 NW10      30.13R WCI  28
ESCANABA       CLOUDY    36  28  73 NW6       30.17R WCI  31
MENOMINEE      CLOUDY    36  28  73 NW5       30.19R WCI  32
SAWYER-GWINN   CLOUDY    32  28  86 N6        30.14R WCI  26
$$
MIZ001>003-009>011-084-030000-
WESTERN UPPER MICHIGAN

CITY           SKY/WX    TMP DP  RH WIND       PRES   REMARKS
IRON MOUNTAIN  CLOUDY    34  26  72 NW8       30.15R WCI  27
HOUGHTON       CLOUDY    32  27  81 NW10      30.16R WCI  24
COPPER HARBOR    N/A     36  29  75 N17       30.16R WCI  26
IRONWOOD       CLOUDY    29  27  92 W8        30.21R WCI  21
$$

ABBREVIATIONS USED IN REMARKS
   TC - TEMPERATURE IN CELSIUS
  WCI - WIND CHILL INDEX
   HX - HEAT INDEX
  VSB - VISIBILITY





USA.gov is the U.S. government's official web portal to all federal, state and local government web resources and services.